Location: Wawayanda State Park
(41.1833°N, 74.4333°W)
Time: 04:25:08
(UTC-04:00)

RESURS DK-1 - Visible Passes

Search period start: 25 April 2014 00:00
Search period end: 05 May 2014 00:00
Orbit: 560 x 569 km, 69.9° (Epoch: 25 April)

Date Brightness Start Highest point End Pass type
(mag) Time Alt. Az. Time Alt. Az. Time Alt. Az.
25 Apr 3.4 21:22:28 10° SW 21:26:30 48° WNW 21:30:34 10° NNE visible
26 Apr 4.1 21:22:50 10° SW 21:26:39 35° WNW 21:30:30 10° N visible
27 Apr 4.8 21:23:20 10° WSW 21:26:50 26° NW 21:30:21 10° N visible
28 Apr 5.4 21:24:00 10° W 21:27:02 19° NW 21:30:06 10° N visible
29 Apr 6.1 04:09:39 10° NNE 04:10:53 11° NE 04:12:07 10° ENE visible
29 Apr 5.8 21:24:54 10° W 21:27:17 15° NW 21:29:40 10° NNW visible
30 Apr 5.8 04:08:46 10° NNE 04:11:10 15° NE 04:13:33 10° E visible
30 Apr 6.1 21:26:19 10° WNW 21:27:33 11° NW 21:28:47 10° NNW visible
01 May 5.3 04:08:20 10° N 04:11:24 19° NE 04:14:27 10° E visible
02 May 4.8 04:08:04 10° N 04:11:36 26° NE 04:15:06 10° ESE visible
03 May 4.1 04:07:54 10° N 04:11:46 35° ENE 04:15:35 10° SE visible
04 May 3.4 04:07:49 10° NNW 04:11:54 48° ENE 04:15:56 10° SE visible
